weather.gov     
National Weather Service

Regional Weather Roundup
NWS Homepage
This page is being discontinued on March 12, 2014.
The same data is available at this site. Please update your bookmarks.
Thank you, and we apologize for the inconvenience.
Please send an email to SR-SRH.Webmaster@noaa.gov with any concerns.


Current Version
Previous Version:    01  02  03  04  05  06  07  08  09  10  11  12  13  14  15  16  17  18  19  20  21  22  23  24  25  26  27  28  
[Printable]
495
ASUS45 KREV 191310
RWRNV
NEVADA REGIONAL WEATHER ROUNDUP
NATIONAL WEATHER SERVICE RENO NV
600 AM PDT FRI SEP 19 2014

NOTE: "FAIR" INDICATES FEW OR NO CLOUDS BELOW 12,000 FEET WITH NO
SIGNIFICANT WEATHER AND/OR OBSTRUCTIONS TO VISIBILITY.

NVZ001-003-004-191400-
WESTERN NEVADA

CITY           SKY/WX    TMP DP  RH WIND       PRES   REMARKS
RENO           PTCLDY    57  43  59 W6        30.06R HAZE
CARSON CITY    CLOUDY    54  41  62 CALM      30.07R
MINDEN         FAIR      46  39  76 SE5       30.09R
SLIDE MTN        N/A     43  32  65 NE28        N/A
FALLON         CLOUDY    62  42  47 NE7       30.00S
LOVELOCK       CLOUDY    62  49  62 N7        30.03R
HAWTHORNE      PTCLDY    64  41  42 W12       30.02R
$$

NVZ002-CAZ072-073-191400-
NORTHERN AND CENTRAL SIERRA

CITY           SKY/WX    TMP DP  RH WIND       PRES   REMARKS
S. LAKE TAHOE  CLEAR     45  40  82 SW5       30.12R HAZE
TRUCKEE        FOG       36  36 100 CALM      30.14R VSB<1/4
SQUAW VLY 8000 NOT AVBL
SUSANVILLE     CLEAR     46  39  76 CALM      30.08
BLUE CANYON    CLEAR     59  35  40 NE6       30.05S
MAMMOTH LAKES  FAIR      50  37  62 W9        30.15R
$$

NVZ030-031-036-191400-
NORTHERN NEVADA

CITY           SKY/WX    TMP DP  RH WIND       PRES   REMARKS
ELKO           CLEAR     48  45  89 CALM      30.07R FOG
WINNEMUCCA     CLOUDY    60  39  45 NW9       30.06R
WENDOVER       CLOUDY    64  48  55 CALM      30.02R
$$

NVZ035-037-191400-
CENTRAL NEVADA

CITY           SKY/WX    TMP DP  RH WIND       PRES   REMARKS
ELY            PTCLDY    46  36  68 S9        30.13R
EUREKA           N/A     47  41  80 CALM      30.10R
$$

NVZ013-014-191400-
SOUTH CENTRAL NEVADA

CITY           SKY/WX    TMP DP  RH WIND       PRES   REMARKS
TONOPAH        CLEAR     55  34  45 N9        30.04R
$$

NVZ017-020-022-191400-
SOUTHERN NEVADA

CITY           SKY/WX    TMP DP  RH WIND       PRES   REMARKS
LAS VEGAS      CLEAR     76  48  37 SW5       29.79R
N. LAS VEGAS   CLEAR     73  43  33 NW3       29.81R
NELLIS AFB     CLEAR     74  46  37 E3        29.80R
HENDERSON      CLEAR     75  46  35 S16       29.84R
MERCURY        CLEAR     67  44  43 VRB3      29.89R
$$




U.S. Dept. of Commerce
NOAA National Weather Service
1325 East West Highway
Silver Spring, MD 20910
E-mail: w-nws.webmaster@noaa.gov
Page last modified: May 16, 2007
NATIONAL WEATHER SERVICE: for Safety, for Work, for Fun - FOR LIFE